Location: Unspecified
(40.9447°N, 78.9903°W)
Time: 05:47:25
(UTC-05:00)

Hubble Space Telescope - Visible Passes

Search period start: 14 November 2019 00:00
Search period end: 24 November 2019 00:00
Orbit: 536 x 540 km, 28.5° (Epoch: 13 November)

Date Brightness Start Highest point End Pass type
(mag) Time Alt. Az. Time Alt. Az. Time Alt. Az.
19 Nov 3.6 19:30:01 10° SSW 19:30:02 10° SSW 19:30:02 10° SSW visible
20 Nov 3.4 19:19:07 10° SSW 19:20:03 12° SSW 19:20:03 12° SSW visible
21 Nov 3.2 19:08:19 10° SSW 19:10:04 14° S 19:10:04 14° S visible
22 Nov 3.1 18:57:34 10° SW 18:59:50 14° S 19:00:06 14° S visible
23 Nov 3.1 18:46:54 10° SW 18:49:07 14° S 18:50:10 13° SSE visible
